| time (UTC) | temp F | wind direction | speed MPH | gust MPH | rain 1hr in | rain 24hr in | rain mn in | humidity % | barometer mb |
| 20260508202652 | 69 | 126 | 0.0 | 0.0 | 0.00 | 0.00 | 0.00 | 61 | 1013.0 |
| 20260508202150 | 69 | 135 | 0.0 | 0.0 | 0.00 | 0.00 | 0.00 | 62 | 1013.2 |
| 20260508201646 | 70 | 128 | 0.0 | 0.0 | 0.00 | 0.00 | 0.00 | 68 | 1013.2 |
| 20260508201143 | 70 | 107 | 0.0 | 0.0 | 0.00 | 0.00 | 0.00 | 59 | 1013.2 |
| 20260508200640 | 70 | 113 | 0.0 | 0.0 | 0.00 | 0.00 | 0.00 | 58 | 1013.3 |
| 20260508200136 | 71 | 116 | 0.0 | 0.0 | 0.00 | 0.00 | 0.00 | 55 | 1013.0 |
| 20260508195633 | 70 | 116 | 0.0 | 0.0 | 0.00 | 0.00 | 0.00 | 57 | 1013.2 |
| 20260508195129 | 70 | 118 | 0.0 | 0.0 | 0.00 | 0.00 | 0.00 | 54 | 1013.2 |
| 20260508194626 | 71 | 121 | 0.0 | 0.0 | 0.00 | 0.00 | 0.00 | 52 | 1013.1 |
| 20260508194123 | 70 | 120 | 0.0 | 0.0 | 0.00 | 0.00 | 0.00 | 50 | 1013.5 |
| 20260508193620 | 70 | 136 | 0.0 | 0.0 | 0.00 | 0.00 | 0.00 | 48 | 1013.3 |
| 20260508193116 | 71 | 131 | 0.0 | 0.0 | 0.00 | 0.00 | 0.00 | 52 | 1013.5 |
| 20260508192613 | 71 | 124 | 0.0 | 0.0 | 0.00 | 0.00 | 0.00 | 45 | 1013.6 |
| 20260508192110 | 71 | 124 | 0.0 | 0.0 | 0.00 | 0.00 | 0.00 | 52 | 1013.9 |
| 20260508191607 | 71 | 119 | 0.0 | 0.0 | 0.00 | 0.00 | 0.00 | 53 | 1013.8 |
| 20260508191104 | 71 | 129 | 0.0 | 0.0 | 0.00 | 0.00 | 0.00 | 48 | 1014.0 |
| 20260508190601 | 71 | 132 | 0.0 | 0.0 | 0.00 | 0.00 | 0.00 | 54 | 1014.4 |
| 20260508190057 | 72 | 133 | 0.0 | 0.0 | 0.00 | 0.00 | 0.00 | 53 | 1014.3 |
| 20260508185554 | 72 | 92 | 0.0 | 0.0 | 0.00 | 0.00 | 0.00 | 46 | 1014.4 |
| 20260508185052 | 72 | 117 | 0.0 | 0.0 | 0.00 | 0.00 | 0.00 | 46 | 1014.1 |
| 20260508184549 | 72 | 119 | 0.0 | 0.0 | 0.00 | 0.00 | 0.00 | 47 | 1014.5 |
| 20260508184046 | 73 | 86 | 0.0 | 0.0 | 0.00 | 0.00 | 0.00 | 46 | 1014.2 |
| 20260508183542 | 72 | 106 | 0.0 | 0.0 | 0.00 | 0.00 | 0.00 | 42 | 1014.4 |
| 20260508183038 | 72 | 125 | 0.0 | 0.0 | 0.00 | 0.00 | 0.00 | 45 | 1014.7 |
| 20260508182535 | 72 | 142 | 0.0 | 0.0 | 0.00 | 0.00 | 0.00 | 44 | 1014.5 |
| 20260508182032 | 71 | 88 | 0.0 | 0.0 | 0.00 | 0.00 | 0.00 | 42 | 1014.5 |
| 20260508181527 | 73 | 83 | 0.0 | 1.0 | 0.00 | 0.00 | 0.00 | 41 | 1014.8 |
| 20260508181025 | 74 | 140 | 0.0 | 0.0 | 0.00 | 0.00 | 0.00 | 39 | 1014.7 |
| 20260508180521 | 72 | 114 | 0.0 | 0.0 | 0.00 | 0.00 | 0.00 | 38 | 1014.6 |
| 20260508180018 | 73 | 45 | 1.0 | 1.0 | 0.00 | 0.00 | 0.00 | 37 | 1014.8 |
| 20260508175514 | 73 | 126 | 0.0 | 0.0 | 0.00 | 0.00 | 0.00 | 43 | 1014.9 |
| 20260508175012 | 72 | 123 | 0.0 | 0.0 | 0.00 | 0.00 | 0.00 | 44 | 1014.8 |
| 20260508174509 | 73 | 73 | 0.0 | 1.0 | 0.00 | 0.00 | 0.00 | 39 | 1015.0 |
| 20260508174006 | 73 | 229 | 1.0 | 1.0 | 0.00 | 0.00 | 0.00 | 38 | 1015.0 |
| 20260508173503 | 74 | 196 | 1.0 | 1.0 | 0.00 | 0.00 | 0.00 | 38 | 1015.3 |
| 20260508172959 | 73 | 119 | 0.0 | 0.0 | 0.00 | 0.00 | 0.00 | 45 | 1015.2 |
| 20260508172456 | 72 | 71 | 0.0 | 1.0 | 0.00 | 0.00 | 0.00 | 42 | 1015.3 |
| 20260508171952 | 71 | 206 | 1.0 | 1.0 | 0.00 | 0.00 | 0.00 | 43 | 1015.6 |
| 20260508171449 | 71 | 166 | 1.0 | 1.0 | 0.00 | 0.00 | 0.00 | 41 | 1015.4 |
| 20260508170945 | 71 | 118 | 0.0 | 0.0 | 0.00 | 0.00 | 0.00 | 37 | 1015.7 |
| 20260508170443 | 71 | 235 | 0.0 | 1.0 | 0.00 | 0.00 | 0.00 | 41 | 1015.7 |
| 20260508165940 | 70 | 81 | 0.0 | 0.0 | 0.00 | 0.00 | 0.00 | 43 | 1015.5 |
| 20260508165438 | 71 | 63 | 1.0 | 2.0 | 0.00 | 0.00 | 0.00 | 42 | 1015.7 |
| 20260508164933 | 70 | 115 | 0.0 | 0.0 | 0.00 | 0.00 | 0.00 | 44 | 1015.7 |
| 20260508164430 | 72 | 74 | 1.0 | 2.0 | 0.00 | 0.00 | 0.00 | 44 | 1015.7 |
| 20260508163928 | 71 | 65 | 2.0 | 3.0 | 0.00 | 0.00 | 0.00 | 45 | 1015.6 |
| 20260508163425 | 71 | 107 | 0.0 | 0.0 | 0.00 | 0.00 | 0.00 | 47 | 1015.8 |
| 20260508162920 | 69 | 118 | 0.0 | 0.0 | 0.00 | 0.00 | 0.00 | 49 | 1016.3 |
| 20260508162419 | 69 | 130 | 0.0 | 0.0 | 0.00 | 0.00 | 0.00 | 46 | 1016.2 |
| 20260508161915 | 69 | 96 | 0.0 | 0.0 | 0.00 | 0.00 | 0.00 | 51 | 1016.3 |
| 20260508161412 | 69 | 88 | 0.0 | 0.0 | 0.00 | 0.00 | 0.00 | 50 | 1016.6 |
| 20260508160909 | 67 | 141 | 1.0 | 2.0 | 0.00 | 0.00 | 0.00 | 49 | 1016.8 |
| 20260508160409 | 67 | 195 | 2.0 | 2.0 | 0.00 | 0.00 | 0.00 | 53 | 1016.7 |
| 20260508155904 | 68 | 155 | 1.0 | 2.0 | 0.00 | 0.00 | 0.00 | 56 | 1016.8 |
| 20260508155402 | 68 | 254 | 2.0 | 2.0 | 0.00 | 0.00 | 0.00 | 54 | 1017.0 |
| 20260508154858 | 69 | 88 | 0.0 | 0.0 | 0.00 | 0.00 | 0.00 | 52 | 1016.7 |
| 20260508154356 | 68 | 78 | 0.0 | 0.0 | 0.00 | 0.00 | 0.00 | 50 | 1016.7 |
| 20260508153852 | 67 | 86 | 1.0 | 1.0 | 0.00 | 0.00 | 0.00 | 52 | 1017.3 |
| 20260508153349 | 67 | 85 | 0.0 | 0.0 | 0.00 | 0.00 | 0.00 | 55 | 1016.9 |
| 20260508152845 | 67 | 87 | 1.0 | 2.0 | 0.00 | 0.00 | 0.00 | 56 | 1017.1 |
| 20260508152342 | 67 | 107 | 0.0 | 0.0 | 0.00 | 0.00 | 0.00 | 59 | 1017.2 |
| 20260508151838 | 67 | 89 | 1.0 | 1.0 | 0.00 | 0.00 | 0.00 | 59 | 1017.2 |
| 20260508151336 | 66 | 189 | 0.0 | 0.0 | 0.00 | 0.00 | 0.00 | 62 | 1017.0 |
| 20260508150832 | 65 | 127 | 0.0 | 0.0 | 0.00 | 0.00 | 0.00 | 67 | 1017.1 |
| 20260508150329 | 65 | 110 | 1.0 | 2.0 | 0.00 | 0.00 | 0.00 | 64 | 1017.1 |
| 20260508145825 | 66 | 94 | 0.0 | 0.0 | 0.00 | 0.00 | 0.00 | 64 | 1017.1 |
| 20260508145321 | 65 | 66 | 1.0 | 1.0 | 0.00 | 0.00 | 0.00 | 66 | 1017.1 |
| 20260508144818 | 66 | 126 | 0.0 | 0.0 | 0.00 | 0.00 | 0.00 | 65 | 1017.0 |
| 20260508144316 | 64 | 103 | 0.0 | 1.0 | 0.00 | 0.00 | 0.00 | 68 | 1017.3 |
| 20260508143813 | 64 | 64 | 0.0 | 1.0 | 0.00 | 0.00 | 0.00 | 68 | 1017.3 |
| 20260508143310 | 63 | 120 | 0.0 | 0.0 | 0.00 | 0.00 | 0.00 | 69 | 1017.3 |
| 20260508142807 | 64 | 98 | 1.0 | 2.0 | 0.00 | 0.00 | 0.00 | 66 | 1017.3 |
| 20260508142306 | 63 | 87 | 0.0 | 0.0 | 0.00 | 0.00 | 0.00 | 70 | 1017.3 |
| 20260508141800 | 64 | 129 | 0.0 | 0.0 | 0.00 | 0.00 | 0.00 | 68 | 1017.1 |
| 20260508141257 | 64 | 100 | 0.0 | 1.0 | 0.00 | 0.00 | 0.00 | 69 | 1017.3 |
| 20260508140755 | 63 | 74 | 0.0 | 1.0 | 0.00 | 0.00 | 0.00 | 70 | 1017.2 |
| 20260508140251 | 63 | 198 | 0.0 | 0.0 | 0.00 | 0.00 | 0.00 | 70 | 1017.1 |
| 20260508135747 | 61 | 120 | 0.0 | 0.0 | 0.00 | 0.00 | 0.00 | 76 | 1017.2 |
| 20260508135243 | 60 | 104 | 0.0 | 0.0 | 0.00 | 0.00 | 0.00 | 78 | 1017.3 |
| 20260508134739 | 61 | 94 | 0.0 | 0.0 | 0.00 | 0.00 | 0.00 | 75 | 1017.4 |
| 20260508134237 | 61 | 107 | 0.0 | 0.0 | 0.00 | 0.00 | 0.00 | 76 | 1017.2 |
| 20260508133733 | 60 | 98 | 0.0 | 0.0 | 0.00 | 0.00 | 0.00 | 75 | 1017.1 |
| 20260508133231 | 61 | 119 | 0.0 | 0.0 | 0.00 | 0.00 | 0.00 | 76 | 1017.3 |
| 20260508132728 | 60 | 113 | 0.0 | 0.0 | 0.00 | 0.00 | 0.00 | 76 | 1017.3 |
| 20260508132226 | 60 | 114 | 0.0 | 0.0 | 0.00 | 0.00 | 0.00 | 79 | 1017.2 |
| 20260508131721 | 59 | 107 | 0.0 | 0.0 | 0.00 | 0.00 | 0.00 | 82 | 1017.4 |
| 20260508131218 | 58 | 104 | 0.0 | 0.0 | 0.00 | 0.00 | 0.00 | 83 | 1017.2 |
| 20260508130714 | 57 | 99 | 0.0 | 0.0 | 0.00 | 0.00 | 0.00 | 85 | 1017.4 |
| 20260508130212 | 57 | 108 | 0.0 | 0.0 | 0.00 | 0.00 | 0.00 | 88 | 1017.6 |
| 20260508125707 | 56 | 118 | 0.0 | 0.0 | 0.00 | 0.00 | 0.00 | 94 | 1017.6 |
| 20260508125204 | 55 | 118 | 0.0 | 0.0 | 0.00 | 0.00 | 0.00 | 97 | 1017.4 |
| 20260508124702 | 53 | 118 | 0.0 | 0.0 | 0.00 | 0.00 | 0.00 | 97 | 1017.4 |
| 20260508124159 | 52 | 118 | 0.0 | 0.0 | 0.00 | 0.00 | 0.00 | 98 | 1017.8 |
| 20260508123657 | 52 | 123 | 0.0 | 0.0 | 0.00 | 0.00 | 0.00 | 98 | 1017.6 |
| 20260508123155 | 51 | 123 | 0.0 | 0.0 | 0.00 | 0.00 | 0.00 | 99 | 1017.4 |
| 20260508122651 | 51 | 123 | 0.0 | 0.0 | 0.00 | 0.00 | 0.00 | 99 | 1017.3 |
| 20260508122147 | 51 | 123 | 0.0 | 0.0 | 0.00 | 0.00 | 0.00 | 99 | 1017.3 |
| 20260508121645 | 51 | 123 | 0.0 | 0.0 | 0.00 | 0.00 | 0.00 | 99 | 1017.4 |
| 20260508121144 | 50 | 121 | 0.0 | 0.0 | 0.00 | 0.00 | 0.00 | 99 | 1017.0 |
| 20260508120641 | 50 | 121 | 0.0 | 0.0 | 0.00 | 0.00 | 0.00 | 99 | 1017.0 |
| 20260508120139 | 50 | 121 | 0.0 | 0.0 | 0.00 | 0.00 | 0.00 | 99 | 1017.0 |
| 20260508115637 | 49 | 116 | 0.0 | 0.0 | 0.00 | 0.00 | 0.00 | 99 | 1016.7 |
| 20260508115133 | 49 | 120 | 0.0 | 0.0 | 0.00 | 0.00 | 0.00 | 99 | 1016.7 |
| 20260508114630 | 49 | 119 | 0.0 | 0.0 | 0.00 | 0.00 | 0.00 | 99 | 1016.5 |
| 20260508114126 | 48 | 111 | 0.0 | 0.0 | 0.00 | 0.00 | 0.00 | 99 | 1016.4 |
| 20260508113623 | 48 | 104 | 0.0 | 0.0 | 0.00 | 0.00 | 0.00 | 99 | 1016.5 |
| 20260508113122 | 48 | 106 | 0.0 | 0.0 | 0.00 | 0.00 | 0.00 | 99 | 1016.3 |
| 20260508112617 | 48 | 107 | 0.0 | 0.0 | 0.00 | 0.00 | 0.00 | 99 | 1016.1 |
| 20260508112115 | 48 | 108 | 0.0 | 0.0 | 0.00 | 0.00 | 0.00 | 99 | 1016.2 |
| 20260508111611 | 48 | 108 | 0.0 | 0.0 | 0.00 | 0.00 | 0.00 | 99 | 1016.2 |
| 20260508111108 | 48 | 108 | 0.0 | 0.0 | 0.00 | 0.00 | 0.00 | 99 | 1016.0 |
| 20260508110607 | 48 | 108 | 0.0 | 0.0 | 0.00 | 0.00 | 0.00 | 99 | 1015.8 |
| 20260508105557 | 48 | 108 | 0.0 | 0.0 | 0.00 | 0.00 | 0.00 | 99 | 1015.5 |
| 20260508105055 | 48 | 108 | 0.0 | 0.0 | 0.00 | 0.00 | 0.00 | 99 | 1015.7 |
| 20260508104552 | 48 | 110 | 0.0 | 0.0 | 0.00 | 0.00 | 0.00 | 99 | 1015.8 |
| 20260508104049 | 48 | 115 | 0.0 | 0.0 | 0.00 | 0.00 | 0.00 | 99 | 1015.9 |
| 20260508103546 | 48 | 123 | 0.0 | 0.0 | 0.00 | 0.00 | 0.00 | 99 | 1015.6 |
| 20260508103043 | 48 | 121 | 0.0 | 0.0 | 0.00 | 0.00 | 0.00 | 99 | 1015.3 |
| 20260508102541 | 48 | 119 | 0.0 | 0.0 | 0.00 | 0.00 | 0.00 | 99 | 1015.3 |
| 20260508102038 | 48 | 123 | 0.0 | 0.0 | 0.00 | 0.00 | 0.00 | 99 | 1015.3 |
| 20260508101536 | 48 | 121 | 0.0 | 0.0 | 0.00 | 0.00 | 0.00 | 99 | 1015.1 |
| 20260508101032 | 48 | 121 | 0.0 | 0.0 | 0.00 | 0.00 | 0.00 | 99 | 1015.2 |
| 20260508100531 | 48 | 116 | 0.0 | 0.0 | 0.00 | 0.00 | 0.00 | 99 | 1015.0 |
| 20260508100027 | 48 | 116 | 0.0 | 0.0 | 0.00 | 0.00 | 0.00 | 99 | 1014.7 |
| 20260508095524 | 48 | 103 | 0.0 | 0.0 | 0.00 | 0.00 | 0.00 | 99 | 1014.8 |
| 20260508095021 | 48 | 103 | 0.0 | 0.0 | 0.00 | 0.00 | 0.00 | 99 | 1014.7 |
| 20260508094518 | 48 | 108 | 0.0 | 0.0 | 0.00 | 0.00 | 0.00 | 99 | 1014.8 |
| 20260508094015 | 48 | 108 | 0.0 | 0.0 | 0.00 | 0.00 | 0.00 | 99 | 1014.7 |
| 20260508093512 | 49 | 108 | 0.0 | 0.0 | 0.00 | 0.00 | 0.00 | 99 | 1014.8 |
| 20260508093010 | 49 | 112 | 0.0 | 0.0 | 0.00 | 0.00 | 0.00 | 99 | 1014.7 |
| 20260508092507 | 49 | 111 | 0.0 | 0.0 | 0.00 | 0.00 | 0.00 | 99 | 1014.6 |
| 20260508092006 | 49 | 118 | 0.0 | 0.0 | 0.00 | 0.00 | 0.00 | 99 | 1014.6 |
| 20260508091502 | 49 | 120 | 0.0 | 0.0 | 0.00 | 0.00 | 0.00 | 99 | 1014.5 |
| 20260508090959 | 49 | 111 | 0.0 | 0.0 | 0.00 | 0.00 | 0.00 | 99 | 1014.3 |
| 20260508090458 | 49 | 119 | 0.0 | 0.0 | 0.00 | 0.00 | 0.00 | 99 | 1014.6 |
| 20260508085953 | 49 | 111 | 0.0 | 0.0 | 0.00 | 0.00 | 0.00 | 99 | 1014.8 |
| 20260508085450 | 49 | 103 | 0.0 | 0.0 | 0.00 | 0.00 | 0.00 | 99 | 1014.7 |
| 20260508084947 | 49 | 113 | 0.0 | 0.0 | 0.00 | 0.00 | 0.00 | 99 | 1014.5 |
| 20260508084444 | 49 | 113 | 0.0 | 0.0 | 0.00 | 0.00 | 0.00 | 99 | 1014.5 |
| 20260508083942 | 49 | 110 | 0.0 | 0.0 | 0.00 | 0.00 | 0.00 | 99 | 1014.3 |
| 20260508083439 | 49 | 107 | 0.0 | 0.0 | 0.00 | 0.00 | 0.00 | 99 | 1014.4 |
| 20260508082939 | 50 | 109 | 0.0 | 0.0 | 0.00 | 0.00 | 0.00 | 99 | 1014.4 |
| 20260508082436 | 50 | 116 | 0.0 | 0.0 | 0.00 | 0.00 | 0.00 | 99 | 1014.7 |
| 20260508081934 | 50 | 121 | 0.0 | 0.0 | 0.00 | 0.00 | 0.00 | 99 | 1014.4 |
| 20260508081430 | 50 | 118 | 0.0 | 0.0 | 0.00 | 0.00 | 0.00 | 99 | 1014.4 |
| 20260508080926 | 50 | 120 | 0.0 | 0.0 | 0.00 | 0.00 | 0.00 | 99 | 1014.5 |
| 20260508080425 | 50 | 114 | 0.0 | 0.0 | 0.00 | 0.00 | 0.00 | 99 | 1014.5 |
| 20260508075921 | 50 | 121 | 0.0 | 0.0 | 0.00 | 0.00 | 0.00 | 99 | 1014.3 |
| 20260508075419 | 50 | 123 | 0.0 | 0.0 | 0.00 | 0.00 | 0.00 | 99 | 1014.4 |
| 20260508074916 | 50 | 123 | 0.0 | 0.0 | 0.00 | 0.00 | 0.00 | 99 | 1014.4 |
| 20260508074408 | 50 | 123 | 0.0 | 0.0 | 0.00 | 0.00 | 0.00 | 99 | 1014.4 |
| 20260508073904 | 50 | 121 | 0.0 | 0.0 | 0.00 | 0.00 | 0.00 | 99 | 1014.4 |
| 20260508073402 | 50 | 120 | 0.0 | 0.0 | 0.00 | 0.00 | 0.00 | 99 | 1014.5 |
| 20260508072859 | 50 | 120 | 0.0 | 0.0 | 0.00 | 0.00 | 0.00 | 99 | 1014.3 |
| 20260508072355 | 50 | 113 | 0.0 | 0.0 | 0.00 | 0.00 | 0.00 | 99 | 1014.4 |
| 20260508071852 | 50 | 113 | 0.0 | 0.0 | 0.00 | 0.00 | 0.00 | 99 | 1014.4 |
| 20260508071351 | 50 | 99 | 0.0 | 0.0 | 0.00 | 0.00 | 0.00 | 99 | 1014.4 |
| 20260508070848 | 51 | 113 | 0.0 | 0.0 | 0.00 | 0.00 | 0.00 | 99 | 1014.6 |
| 20260508070346 | 51 | 119 | 0.0 | 0.0 | 0.00 | 0.00 | 0.00 | 99 | 1014.6 |
| 20260508065843 | 51 | 107 | 0.0 | 0.0 | 0.00 | 0.00 | 0.00 | 99 | 1014.8 |
| 20260508065341 | 51 | 109 | 0.0 | 0.0 | 0.00 | 0.00 | 0.00 | 99 | 1014.9 |
| 20260508064839 | 51 | 109 | 0.0 | 0.0 | 0.00 | 0.00 | 0.00 | 99 | 1014.7 |
| 20260508064336 | 51 | 104 | 0.0 | 0.0 | 0.00 | 0.00 | 0.00 | 99 | 1014.5 |
| 20260508063834 | 51 | 120 | 0.0 | 0.0 | 0.00 | 0.00 | 0.00 | 99 | 1014.7 |
| 20260508063332 | 52 | 120 | 0.0 | 0.0 | 0.00 | 0.00 | 0.00 | 99 | 1015.0 |
| 20260508062828 | 52 | 120 | 0.0 | 0.0 | 0.00 | 0.00 | 0.00 | 99 | 1014.8 |
| 20260508062326 | 52 | 122 | 0.0 | 0.0 | 0.00 | 0.00 | 0.00 | 99 | 1014.7 |
| 20260508061823 | 52 | 115 | 0.0 | 0.0 | 0.00 | 0.00 | 0.00 | 99 | 1014.6 |
| 20260508061320 | 52 | 122 | 0.0 | 0.0 | 0.00 | 0.00 | 0.00 | 99 | 1014.8 |
| 20260508060817 | 52 | 119 | 0.0 | 0.0 | 0.00 | 0.00 | 0.00 | 99 | 1015.0 |
| 20260508060314 | 52 | 119 | 0.0 | 0.0 | 0.00 | 0.00 | 0.00 | 99 | 1015.0 |
| 20260508055809 | 52 | 121 | 0.0 | 0.0 | 0.00 | 0.00 | 0.00 | 99 | 1015.0 |
| 20260508055307 | 52 | 119 | 0.0 | 0.0 | 0.00 | 0.00 | 0.00 | 99 | 1014.8 |
| 20260508054803 | 53 | 119 | 0.0 | 0.0 | 0.00 | 0.00 | 0.00 | 99 | 1015.0 |
| 20260508054301 | 53 | 121 | 0.0 | 0.0 | 0.00 | 0.00 | 0.00 | 99 | 1014.8 |
| 20260508053757 | 52 | 130 | 0.0 | 0.0 | 0.00 | 0.00 | 0.00 | 99 | 1014.9 |
| 20260508053255 | 52 | 113 | 0.0 | 0.0 | 0.00 | 0.00 | 0.00 | 99 | 1014.8 |
| 20260508052752 | 52 | 102 | 0.0 | 0.0 | 0.00 | 0.00 | 0.00 | 99 | 1014.8 |
| 20260508052249 | 53 | 108 | 0.0 | 0.0 | 0.00 | 0.00 | 0.00 | 99 | 1014.6 |
| 20260508051745 | 53 | 96 | 0.0 | 0.0 | 0.00 | 0.00 | 0.00 | 99 | 1014.8 |
| 20260508051240 | 53 | 106 | 0.0 | 0.0 | 0.00 | 0.00 | 0.00 | 99 | 1014.8 |
| 20260508050737 | 53 | 107 | 0.0 | 0.0 | 0.00 | 0.00 | 0.00 | 99 | 1014.9 |
| 20260508050235 | 54 | 110 | 0.0 | 0.0 | 0.00 | 0.00 | 0.00 | 99 | 1015.0 |
| 20260508045730 | 54 | 116 | 0.0 | 0.0 | 0.00 | 0.00 | 0.00 | 99 | 1014.8 |
| 20260508045228 | 54 | 124 | 0.0 | 0.0 | 0.00 | 0.00 | 0.00 | 99 | 1015.0 |
| 20260508044726 | 54 | 119 | 0.0 | 0.0 | 0.00 | 0.00 | 0.00 | 99 | 1014.9 |
| 20260508044222 | 55 | 123 | 0.0 | 0.0 | 0.00 | 0.00 | 0.00 | 99 | 1014.9 |
| 20260508043718 | 54 | 115 | 0.0 | 0.0 | 0.00 | 0.00 | 0.00 | 99 | 1014.9 |
| 20260508043216 | 55 | 115 | 0.0 | 0.0 | 0.00 | 0.00 | 0.00 | 99 | 1014.8 |
| 20260508042712 | 55 | 119 | 0.0 | 0.0 | 0.00 | 0.00 | 0.00 | 99 | 1014.8 |
| 20260508042210 | 54 | 124 | 0.0 | 0.0 | 0.00 | 0.00 | 0.00 | 99 | 1014.8 |
| 20260508041706 | 54 | 118 | 0.0 | 0.0 | 0.00 | 0.00 | 0.00 | 99 | 1014.8 |
| 20260508041203 | 54 | 119 | 0.0 | 0.0 | 0.00 | 0.00 | 0.00 | 99 | 1014.9 |
| 20260508040659 | 54 | 112 | 0.0 | 0.0 | 0.00 | 0.00 | 0.00 | 99 | 1014.8 |
| 20260508040157 | 55 | 102 | 0.0 | 0.0 | 0.00 | 0.00 | 0.00 | 99 | 1014.6 |
| 20260508035654 | 55 | 102 | 0.0 | 0.0 | 0.00 | 1.21 | 1.21 | 99 | 1014.7 |
| 20260508035151 | 55 | 120 | 0.0 | 0.0 | 0.00 | 1.21 | 1.21 | 99 | 1014.8 |
| 20260508034648 | 55 | 123 | 0.0 | 0.0 | 0.00 | 1.21 | 1.21 | 99 | 1015.1 |
| 20260508034145 | 55 | 136 | 0.0 | 0.0 | 0.00 | 1.21 | 1.21 | 99 | 1014.9 |
| 20260508033642 | 55 | 108 | 0.0 | 0.0 | 0.00 | 1.21 | 1.21 | 99 | 1014.7 |
| 20260508033141 | 55 | 114 | 0.0 | 0.0 | 0.00 | 1.21 | 1.21 | 99 | 1014.8 |
| 20260508032637 | 55 | 119 | 0.0 | 0.0 | 0.00 | 1.21 | 1.21 | 99 | 1015.0 |
| 20260508032134 | 55 | 109 | 0.0 | 0.0 | 0.00 | 1.21 | 1.21 | 99 | 1014.8 |
| 20260508031631 | 55 | 100 | 0.0 | 0.0 | 0.00 | 1.21 | 1.21 | 99 | 1014.6 |
| 20260508031127 | 55 | 100 | 0.0 | 0.0 | 0.00 | 1.21 | 1.21 | 99 | 1014.8 |
| 20260508030624 | 55 | 100 | 0.0 | 0.0 | 0.00 | 1.21 | 1.21 | 99 | 1014.6 |
| 20260508030122 | 56 | 102 | 0.0 | 0.0 | 0.00 | 1.21 | 1.21 | 98 | 1014.4 |
| 20260508025618 | 56 | 118 | 0.0 | 0.0 | 0.00 | 1.21 | 1.21 | 98 | 1014.4 |
| 20260508025115 | 56 | 123 | 0.0 | 0.0 | 0.00 | 1.21 | 1.21 | 98 | 1014.3 |
| 20260508024611 | 56 | 100 | 0.0 | 0.0 | 0.00 | 1.21 | 1.21 | 98 | 1014.2 |
| 20260508024108 | 56 | 101 | 0.0 | 0.0 | 0.00 | 1.21 | 1.21 | 98 | 1014.1 |
| 20260508023604 | 56 | 100 | 0.0 | 0.0 | 0.00 | 1.21 | 1.21 | 98 | 1014.6 |
| 20260508023102 | 56 | 100 | 0.0 | 0.0 | 0.00 | 1.21 | 1.21 | 98 | 1014.4 |
| 20260508022558 | 56 | 100 | 0.0 | 0.0 | 0.00 | 1.21 | 1.21 | 98 | 1014.4 |
| 20260508022055 | 57 | 100 | 0.0 | 0.0 | 0.00 | 1.21 | 1.21 | 98 | 1014.2 |
| 20260508021550 | 57 | 104 | 0.0 | 0.0 | 0.00 | 1.21 | 1.21 | 98 | 1014.4 |
| 20260508021047 | 57 | 107 | 0.0 | 0.0 | 0.00 | 1.21 | 1.21 | 98 | 1014.4 |
| 20260508020544 | 57 | 111 | 0.0 | 0.0 | 0.00 | 1.21 | 1.21 | 98 | 1014.4 |
| 20260508020042 | 57 | 122 | 0.0 | 0.0 | 0.00 | 1.21 | 1.21 | 98 | 1014.3 |
| 20260508015539 | 57 | 118 | 0.0 | 0.0 | 0.00 | 1.21 | 1.21 | 98 | 1014.1 |
| 20260508015036 | 58 | 116 | 0.0 | 0.0 | 0.00 | 1.21 | 1.21 | 98 | 1014.1 |
| 20260508014532 | 58 | 107 | 0.0 | 0.0 | 0.00 | 1.21 | 1.21 | 97 | 1013.9 |
| 20260508014029 | 57 | 106 | 0.0 | 0.0 | 0.00 | 1.21 | 1.21 | 96 | 1014.0 |
| 20260508013525 | 58 | 106 | 0.0 | 0.0 | 0.00 | 1.21 | 1.21 | 96 | 1013.9 |
| 20260508013022 | 58 | 120 | 0.0 | 0.0 | 0.00 | 1.21 | 1.21 | 96 | 1013.9 |
| 20260508012519 | 58 | 121 | 0.0 | 0.0 | 0.00 | 1.21 | 1.21 | 96 | 1013.7 |
| 20260508012017 | 58 | 121 | 0.0 | 0.0 | 0.00 | 1.21 | 1.21 | 97 | 1013.5 |
| 20260508011515 | 58 | 121 | 0.0 | 0.0 | 0.00 | 1.21 | 1.21 | 97 | 1013.6 |
| 20260508011012 | 58 | 121 | 0.0 | 0.0 | 0.00 | 1.21 | 1.21 | 97 | 1013.6 |
| 20260508010509 | 59 | 121 | 0.0 | 0.0 | 0.00 | 1.21 | 1.21 | 97 | 1013.3 |
| 20260508010006 | 59 | 123 | 0.0 | 0.0 | 0.00 | 1.21 | 1.21 | 97 | 1013.5 |
| 20260508005503 | 59 | 131 | 0.0 | 0.0 | 0.00 | 1.21 | 1.21 | 97 | 1013.5 |
| 20260508005000 | 59 | 135 | 0.0 | 0.0 | 0.00 | 1.21 | 1.21 | 96 | 1013.2 |
| 20260508004455 | 60 | 123 | 0.0 | 0.0 | 0.00 | 1.21 | 1.21 | 96 | 1013.3 |
| 20260508003952 | 60 | 123 | 0.0 | 0.0 | 0.00 | 1.21 | 1.21 | 96 | 1013.0 |
| 20260508003449 | 60 | 136 | 0.0 | 0.0 | 0.00 | 1.21 | 1.21 | 96 | 1013.2 |
| 20260508002946 | 61 | 136 | 0.0 | 0.0 | 0.00 | 1.21 | 1.21 | 95 | 1013.3 |
| 20260508002442 | 61 | 136 | 0.0 | 0.0 | 0.00 | 1.21 | 1.21 | 94 | 1013.5 |
| 20260508001938 | 61 | 130 | 0.0 | 0.0 | 0.00 | 1.21 | 1.21 | 92 | 1013.1 |
| 20260508001435 | 62 | 129 | 0.0 | 0.0 | 0.00 | 1.21 | 1.21 | 91 | 1013.1 |
| 20260508000931 | 62 | 129 | 0.0 | 0.0 | 0.00 | 1.21 | 1.21 | 90 | 1013.2 |
| 20260508000427 | 62 | 129 | 0.0 | 0.0 | 0.00 | 1.21 | 1.21 | 89 | 1013.1 |
| 20260507235924 | 62 | 128 | 0.0 | 0.0 | 0.00 | 1.21 | 1.21 | 89 | 1012.9 |
| 20260507235421 | 62 | 130 | 0.0 | 0.0 | 0.00 | 1.21 | 1.21 | 89 | 1012.8 |
| 20260507234919 | 63 | 128 | 0.0 | 0.0 | 0.00 | 1.21 | 1.21 | 89 | 1012.8 |
| 20260507234415 | 63 | 120 | 0.0 | 0.0 | 0.00 | 1.21 | 1.21 | 88 | 1012.7 |
| 20260507233911 | 64 | 120 | 0.0 | 0.0 | 0.00 | 1.21 | 1.21 | 89 | 1012.7 |
| 20260507233409 | 64 | 120 | 0.0 | 0.0 | 0.00 | 1.21 | 1.21 | 89 | 1012.7 |
| 20260507232908 | 64 | 118 | 0.0 | 0.0 | 0.00 | 1.21 | 1.21 | 89 | 1012.8 |
| 20260507232403 | 64 | 119 | 0.0 | 0.0 | 0.00 | 1.21 | 1.21 | 89 | 1012.6 |
| 20260507231901 | 64 | 120 | 0.0 | 0.0 | 0.00 | 1.21 | 1.21 | 89 | 1012.9 |
| 20260507231357 | 65 | 120 | 0.0 | 0.0 | 0.00 | 1.21 | 1.21 | 88 | 1012.9 |
| 20260507230853 | 65 | 117 | 0.0 | 0.0 | 0.00 | 1.21 | 1.21 | 86 | 1012.8 |
| 20260507230351 | 65 | 118 | 0.0 | 0.0 | 0.00 | 1.21 | 1.21 | 87 | 1012.8 |
| 20260507225850 | 65 | 124 | 0.0 | 0.0 | 0.00 | 1.21 | 1.21 | 88 | 1012.7 |
| 20260507225347 | 65 | 120 | 0.0 | 0.0 | 0.00 | 1.21 | 1.21 | 86 | 1012.8 |
| 20260507224843 | 65 | 119 | 0.0 | 0.0 | 0.00 | 1.21 | 1.21 | 86 | 1012.6 |
| 20260507224340 | 65 | 125 | 0.0 | 0.0 | 0.00 | 1.21 | 1.21 | 87 | 1012.8 |
| 20260507223836 | 65 | 133 | 0.0 | 0.0 | 0.00 | 1.21 | 1.21 | 84 | 1012.6 |
| 20260507223332 | 66 | 153 | 0.0 | 0.0 | 0.00 | 1.21 | 1.21 | 86 | 1012.7 |
| 20260507222830 | 66 | 122 | 0.0 | 0.0 | 0.00 | 1.21 | 1.21 | 84 | 1012.6 |
| 20260507222326 | 66 | 123 | 0.0 | 0.0 | 0.00 | 1.21 | 1.21 | 84 | 1012.5 |
| 20260507221823 | 66 | 120 | 0.0 | 0.0 | 0.00 | 1.21 | 1.21 | 85 | 1012.5 |
| 20260507221319 | 66 | 119 | 0.0 | 0.0 | 0.00 | 1.21 | 1.21 | 83 | 1012.4 |
| 20260507220815 | 66 | 131 | 0.0 | 0.0 | 0.00 | 1.21 | 1.21 | 86 | 1012.3 |
| 20260507220314 | 67 | 110 | 0.0 | 0.0 | 0.00 | 1.21 | 1.21 | 82 | 1012.2 |
| 20260507215810 | 67 | 101 | 0.0 | 0.0 | 0.00 | 1.21 | 1.21 | 81 | 1012.4 |
| 20260507215307 | 67 | 98 | 0.0 | 1.0 | 0.00 | 1.21 | 1.21 | 80 | 1012.5 |
| 20260507214804 | 67 | 108 | 0.0 | 0.0 | 0.00 | 1.21 | 1.21 | 82 | 1012.3 |
| 20260507214302 | 67 | 119 | 0.0 | 0.0 | 0.00 | 1.21 | 1.21 | 84 | 1012.2 |
| 20260507213756 | 67 | 97 | 2.0 | 2.0 | 0.00 | 1.21 | 1.21 | 83 | 1012.2 |
| 20260507213254 | 67 | 144 | 0.0 | 1.0 | 0.00 | 1.21 | 1.21 | 84 | 1012.2 |
| 20260507212750 | 68 | 147 | 0.0 | 0.0 | 0.00 | 1.21 | 1.21 | 81 | 1012.2 |
| 20260507212247 | 68 | 103 | 0.0 | 0.0 | 0.00 | 1.21 | 1.21 | 81 | 1012.1 |
| 20260507211743 | 68 | 100 | 0.0 | 0.0 | 0.00 | 1.21 | 1.21 | 80 | 1012.2 |
| 20260507211240 | 67 | 156 | 0.0 | 0.0 | 0.00 | 1.21 | 1.21 | 81 | 1012.0 |
| 20260507210737 | 67 | 170 | 0.0 | 0.0 | 0.00 | 1.21 | 1.21 | 84 | 1012.0 |
| 20260507210234 | 67 | 120 | 1.0 | 1.0 | 0.00 | 1.21 | 1.21 | 83 | 1011.9 |
| 20260507205730 | 67 | 66 | 0.0 | 1.0 | 0.00 | 1.21 | 1.21 | 82 | 1011.8 |
| 20260507205227 | 67 | 160 | 1.0 | 1.0 | 0.00 | 1.21 | 1.21 | 83 | 1011.9 |
| 20260507204723 | 67 | 148 | 0.0 | 0.0 | 0.00 | 1.21 | 1.21 | 84 | 1011.9 |
| 20260507204221 | 67 | 62 | 1.0 | 1.0 | 0.00 | 1.21 | 1.21 | 84 | 1011.9 |
| 20260507203719 | 68 | 117 | 0.0 | 0.0 | 0.00 | 1.21 | 1.21 | 82 | 1012.1 |
| 20260507203216 | 68 | 111 | 0.0 | 0.0 | 0.00 | 1.21 | 1.21 | 82 | 1012.0 |